GW1035 Weather Reports


time (UTC)temp
C
wind
direction
speed
KPH
gust
KPH
rain 1hr
cm
rain 24hr
cm
rain mn
cm
humidity
%
barometer
mb
20260505011041 12 0 0.0 1.6 0.00 0.00 0.00 56 1007.1
20260505010537 13 134 0.0 0.0 0.00 0.00 0.00 55 1007.0
20260505010044 13 0 0.0 0.0 0.00 0.00 0.00 52 1007.1
20260505005540 13 0 0.0 0.0 0.00 0.00 0.00 52 1007.0
20260505005040 13 0 0.0 0.0 0.00 0.00 0.00 52 1006.9
20260505004551 13 0 0.0 0.0 0.00 0.00 0.00 52 1006.9
20260505004037 14 0 0.0 0.0 0.00 0.00 0.00 51 1006.8
20260505003537 14 0 0.0 0.0 0.00 0.00 0.00 50 1006.7
20260505003044 14 0 0.0 0.0 0.00 0.00 0.00 50 1006.6
20260505002540 15 0 0.0 0.0 0.00 0.00 0.00 48 1006.5
20260505002040 15 0 0.0 0.0 0.00 0.00 0.00 48 1006.4
20260505001550 15 0 0.0 0.0 0.00 0.00 0.00 47 1006.2
20260505001040 16 0 0.0 0.0 0.00 0.00 0.00 46 1006.2
20260505000546 16 0 0.0 0.0 0.00 0.00 0.00 44 1006.1
20260505000058 16 0 0.0 1.6 0.00 0.00 0.00 43 1006.1
20260504235540 17 0 0.0 0.0 0.00 0.00 0.00 42 1006.1
20260504235040 17 0 0.0 1.6 0.00 0.00 0.00 41 1006.2
20260504234613 17 0 0.0 1.6 0.00 0.00 0.00 40 1006.1
20260504234037 18 0 0.0 3.2 0.00 0.00 0.00 39 1006.0
20260504233537 18 0 0.0 3.2 0.00 0.00 0.00 38 1005.8
20260504233050 18 290 0.0 3.2 0.00 0.00 0.00 38 1006.0
20260504232541 19 0 0.0 4.8 0.00 0.00 0.00 37 1005.9
20260504232040 19 314 0.0 8.0 0.00 0.00 0.00 36 1005.7
20260504231553 20 249 3.2 8.0 0.00 0.00 0.00 35 1005.6
20260504231041 20 264 0.0 4.8 0.00 0.00 0.00 35 1005.6
20260504230542 20 356 1.6 6.4 0.00 0.00 0.00 35 1005.4
20260504230052 20 301 3.2 8.0 0.00 0.00 0.00 34 1005.4
20260504225540 20 248 0.0 8.0 0.00 0.00 0.00 35 1005.4
20260504225040 21 238 1.6 8.0 0.00 0.00 0.00 34 1005.4
20260504224546 20 37 1.6 8.0 0.00 0.00 0.00 34 1005.3
20260504224039 20 261 1.6 8.0 0.00 0.00 0.00 34 1005.3
20260504223539 20 2 3.2 9.7 0.00 0.00 0.00 34 1005.2
20260504223049 20 285 3.2 9.7 0.00 0.00 0.00 35 1005.2
20260504222539 20 256 1.6 8.0 0.00 0.00 0.00 34 1005.2
20260504222037 20 270 4.8 8.0 0.00 0.00 0.00 34 1005.2
20260504221557 21 264 3.2 8.0 0.00 0.00 0.00 33 1005.2
20260504221039 21 262 3.2 8.0 0.00 0.00 0.00 33 1005.3
20260504220540 21 261 1.6 4.8 0.00 0.00 0.00 32 1005.2
20260504220055 21 250 0.0 8.0 0.00 0.00 0.00 34 1005.2
20260504215539 21 283 3.2 11.3 0.00 0.00 0.00 33 1005.2
20260504215036 21 228 4.8 12.9 0.00 0.00 0.00 33 1005.2
20260504214551 20 310 4.8 12.9 0.00 0.00 0.00 34 1005.2
20260504214039 20 278 4.8 12.9 0.00 0.00 0.00 35 1005.2
20260504213539 20 228 3.2 12.9 0.00 0.00 0.00 35 1005.2
20260504213100 20 259 1.6 11.3 0.00 0.00 0.00 34 1005.1
20260504212540 20 297 4.8 11.3 0.00 0.00 0.00 35 1005.1
20260504212042 20 257 3.2 17.7 0.00 0.00 0.00 34 1005.1
20260504211549 20 283 6.4 17.7 0.00 0.00 0.00 34 1005.2
20260504211040 20 259 4.8 14.5 0.00 0.00 0.00 33 1005.0
20260504210538 20 264 6.4 14.5 0.00 0.00 0.00 34 1005.2
20260504210055 20 267 3.2 14.5 0.00 0.00 0.00 35 1005.1
20260504205539 20 19 3.2 12.9 0.00 0.00 0.00 36 1005.2
20260504205041 20 252 4.8 14.5 0.00 0.00 0.00 34 1005.1
20260504204622 21 301 6.4 22.5 0.00 0.00 0.00 33 1005.0
20260504204039 21 226 6.4 22.5 0.00 0.00 0.00 34 1005.0
20260504203542 21 268 9.7 22.5 0.00 0.00 0.00 33 1005.0
20260504203052 21 221 3.2 16.1 0.00 0.00 0.00 34 1005.2
20260504202535 20 278 6.4 17.7 0.00 0.00 0.00 36 1005.1
20260504202042 21 9 4.8 17.7 0.00 0.00 0.00 35 1005.1
20260504201550 20 328 6.4 17.7 0.00 0.00 0.00 35 1005.0
20260504201036 20 0 3.2 16.1 0.00 0.00 0.00 37 1005.1
20260504200539 20 338 4.8 19.3 0.00 0.00 0.00 37 1005.1
20260504200054 20 332 8.0 19.3 0.00 0.00 0.00 36 1005.1
20260504195535 21 340 4.8 12.9 0.00 0.00 0.00 36 1005.0
20260504195041 21 7 4.8 22.5 0.00 0.00 0.00 36 1005.1
20260504194553 21 289 6.4 22.5 0.00 0.00 0.00 36 1005.1
20260504194037 21 225 4.8 14.5 0.00 0.00 0.00 36 1005.2
20260504193536 21 295 8.0 14.5 0.00 0.00 0.00 36 1005.1
20260504193052 20 304 6.4 12.9 0.00 0.00 0.00 37 1005.1
20260504192536 20 283 4.8 16.1 0.00 0.00 0.00 37 1005.1
20260504192037 20 274 4.8 16.1 0.00 0.00 0.00 37 1005.1
20260504191547 20 342 8.0 14.5 0.00 0.00 0.00 36 1005.2
20260504191037 20 297 3.2 12.9 0.00 0.00 0.00 38 1005.2
20260504190536 19 300 6.4 14.5 0.00 0.00 0.00 40 1005.3
20260504190057 19 343 4.8 14.5 0.00 0.00 0.00 40 1005.4
20260504185536 18 297 3.2 11.3 0.00 0.00 0.00 40 1005.3
20260504185037 18 310 4.8 17.7 0.00 0.00 0.00 41 1005.2
20260504184601 17 110 6.4 17.7 0.00 0.00 0.00 41 1005.4
20260504184037 17 2 4.8 20.9 0.00 0.00 0.00 41 1005.5
20260504183538 17 292 6.4 20.9 0.00 0.00 0.00 40 1005.5
20260504183053 17 6 6.4 19.3 0.00 0.00 0.00 40 1005.5
20260504182539 17 334 4.8 19.3 0.00 0.00 0.00 40 1005.5
20260504182036 17 262 8.0 19.3 0.00 0.00 0.00 39 1005.4
20260504181549 17 46 6.4 17.7 0.00 0.00 0.00 39 1005.4
20260504181037 18 289 9.7 17.7 0.00 0.00 0.00 38 1005.5
20260504180537 18 195 6.4 24.1 0.00 0.00 0.00 39 1005.5
20260504180045 18 307 6.4 24.1 0.00 0.00 0.00 39 1005.6
20260504175537 18 271 3.2 11.3 0.00 0.00 0.00 39 1005.5
20260504175042 18 301 4.8 14.5 0.00 0.00 0.00 37 1005.6
20260504174552 18 296 6.4 14.5 0.00 0.00 0.00 36 1005.5
20260504174037 18 263 6.4 19.3 0.00 0.00 0.00 37 1005.4
20260504173536 18 309 6.4 19.3 0.00 0.00 0.00 36 1005.5
20260504173046 18 35 11.3 19.3 0.00 0.00 0.00 35 1005.3
20260504172536 18 51 8.0 16.1 0.00 0.00 0.00 35 1005.5
20260504172036 18 13 3.2 17.7 0.00 0.00 0.00 36 1005.3
20260504171549 19 305 8.0 17.7 0.00 0.00 0.00 37 1005.2
20260504171037 18 224 4.8 17.7 0.00 0.00 0.00 36 1005.3
20260504170537 19 335 6.4 16.1 0.00 0.00 0.00 35 1005.0
20260504151036 16 241 4.8 12.9 0.00 0.00 0.00 46 1006.5
20260504150540 16 242 4.8 12.9 0.00 0.00 0.00 45 1006.5
20260504141038 13 288 3.2 8.0 0.00 0.00 0.00 57 1007.2
20260504140538 12 245 1.6 6.4 0.00 0.00 0.00 59 1007.3
20260504130539 11 217 4.8 9.7 0.00 0.00 0.00 62 1007.8
20260504110537 5 0 0.0 1.6 0.00 0.00 0.00 70 1008.5
20260504100537 4 0 0.0 3.2 0.00 0.00 0.00 68 1008.5
20260504081558 2 0 0.0 1.6 0.00 0.00 0.00 73 1008.3
20260504081035 2 0 0.0 0.0 0.00 0.00 0.00 72 1008.3
20260504080535 2 0 0.0 0.0 0.00 0.00 0.00 72 1008.2
20260504050539 0 0 0.0 0.0 0.00 0.00 0.00 83 1008.1
20260504045538 0 0 0.0 0.0 0.00 0.00 0.00 82 1008.2
20260504045038 0 0 0.0 0.0 0.00 0.00 0.00 81 1008.1
20260504044546 0 0 0.0 0.0 0.00 0.00 0.00 81 1008.2
20260504044037 1 0 0.0 0.0 0.00 0.00 0.00 80 1008.1
20260504043537 1 0 0.0 0.0 0.00 0.00 0.00 81 1008.0
20260504043044 1 0 0.0 0.0 0.00 0.00 0.00 82 1008.1
20260504042537 0 0 0.0 0.0 0.00 0.00 0.00 82 1008.1
20260504042038 0 0 0.0 0.0 0.00 0.00 0.00 81 1008.1
20260504041551 0 0 0.0 0.0 0.00 0.00 0.00 81 1008.1
20260504041037 1 0 0.0 0.0 0.00 0.00 0.00 81 1008.1
20260504040537 1 0 0.0 0.0 0.00 0.00 0.00 80 1008.1
20260504040054 1 0 0.0 0.0 0.00 0.00 0.00 80 1008.0
20260504035540 1 0 0.0 0.0 0.00 0.00 0.00 79 1008.1
20260504035036 1 0 0.0 1.6 0.00 0.00 0.00 79 1008.0
20260504034600 1 0 0.0 1.6 0.00 0.00 0.00 78 1007.9
20260504034036 2 0 0.0 0.0 0.00 0.00 0.00 78 1007.9
20260504033536 2 0 0.0 0.0 0.00 0.00 0.00 76 1007.8
20260504033045 2 0 0.0 0.0 0.00 0.00 0.00 77 1007.8
20260504032536 1 0 0.0 0.0 0.00 0.00 0.00 77 1007.7
20260504032038 1 0 0.0 0.0 0.00 0.00 0.00 77 1007.8
20260504031543 2 0 0.0 0.0 0.00 0.00 0.00 77 1007.8
20260504031037 2 0 0.0 0.0 0.00 0.00 0.00 76 1007.8
20260504030537 2 0 0.0 0.0 0.00 0.00 0.00 74 1007.9
20260504030052 2 0 0.0 0.0 0.00 0.00 0.00 74 1007.8
20260504025537 2 0 0.0 0.0 0.00 0.05 0.00 74 1007.8
20260504025037 2 0 0.0 0.0 0.00 0.05 0.00 74 1007.8
20260504024550 2 0 0.0 0.0 0.00 0.05 0.00 73 1007.8
20260504024037 2 0 0.0 0.0 0.00 0.05 0.00 72 1007.8
20260504023537 2 0 0.0 0.0 0.00 0.05 0.00 72 1007.8
20260504023049 3 0 0.0 0.0 0.00 0.05 0.00 72 1007.8
20260504022537 3 0 0.0 0.0 0.00 0.05 0.00 70 1007.9
20260504022037 3 0 0.0 0.0 0.00 0.05 0.00 69 1007.9
20260504021554 3 0 0.0 0.0 0.00 0.05 0.00 69 1007.9
20260504021038 3 0 0.0 0.0 0.00 0.05 0.00 68 1007.9
20260504020536 3 0 0.0 0.0 0.00 0.05 0.00 68 1007.9
20260504020053 3 0 0.0 0.0 0.00 0.05 0.00 67 1007.9
20260504015538 4 0 0.0 0.0 0.00 0.08 0.00 66 1007.8
20260504015036 4 0 0.0 0.0 0.00 0.08 0.00 65 1007.8
20260504014559 5 0 0.0 0.0 0.00 0.08 0.00 64 1007.8
20260504014037 5 0 0.0 0.0 0.00 0.08 0.00 63 1007.8
20260504013537 5 0 0.0 0.0 0.00 0.08 0.00 62 1007.7
20260504013053 5 0 0.0 0.0 0.00 0.08 0.00 61 1007.6
20260504012537 5 0 0.0 1.6 0.00 0.08 0.00 60 1007.6
20260504012037 6 0 0.0 1.6 0.00 0.08 0.00 59 1007.5
20260504011558 6 0 0.0 3.2 0.00 0.08 0.00 59 1007.4